STARLINK-11144, 59955

Orbit data source: Space-Track

STARLINK-11144, 59955 is a payload satellite owned by SpaceX/Seattle (US) in LEO that was launched on Wed, 05 Jun 2024 UTC via an FALCON 9 launch vehicle from the Air Force Eastern Test Range (AFETR). Payload-class satellites include a variety of spacecraft equipped with specific instruments for various scientific and technological missions. These include communications satellites like Starlink; space stations such as the ISS; scientific satellites like the Hubble; Earth observation satellites from companies like Planet Labs, Umbra, and HawkEye 360; GPS; miniature CubeSats for education and research; and military/defense satellites.

Loading next visibility...
Identifier
59955, 2024-107L
Orbit
LEO
Country
Flag of USUS
Related business
Manufacturer
SpaceX/Seattle
Mission
Operational Commercial Communications
Bus & Motor
STARLINK V2MD, Unknown motor
Mass
960 kg wet, ~910 kg dry
Launch date (UTC)
2024-06-05 (2 years ago)
Launch vehicle
FALCON 9
Launch site
Air Force Eastern Test Range (AFETR)
Object type
Payload
Rocket body
Debris
Shape & HBR
Box + 2 Pan, 18.1 m
Radar Cross Section
36.964 m², Large (>1 m²)

Expand to show TLE details & history
Last TLE update: 3 days ago

TLE from 3 days ago
0 STARLINK-11144
1 59955U 24107L   26170.97438411  .00000377  00000-0  79734-5 0  9992
2 59955  53.1590 106.8434 0001168  94.6752 265.4399 15.69715027118273
Epoch: 2026-06-19T23:23Z
TLE epoch observation values (Epoch: 2026-06-19T23:23:06.787Z)
Latitude
-0.00003°
Longitude
-152.13056°
Altitude
360.69 km
Speed
7.694 km/s
True Right ascension
07h 07m 22s
True Declination
0° 00' 00"
Sunlit
Object was in daylight at epoch
Visualization orbit readout
Latitude
Unknown
Longitude
Unknown
Altitude
Unknown
Speed
Unknown
Apparent Right ascension
Unknown
Apparent Declination
Unknown
Sunlit
N/A
Visualization observer readout
Local Sidereal Time
00:50:24
Azimuth
Unknown
Elevation
Unknown
Doppler factor
Unknown
Orbital elements
Apogee altitude
360.76 km
Perigee altitude
359.186 km
Semi-major axis
6,738.11 km
Eccentricity
0.00012
Inclination
53.159°
RAAN
106.8434°
Arg. of periapsis
94.6752°
True anomaly
265.42656°
Mean anomaly
265.4399°
Eccentric anomaly
265.43323°
Mean motion
3.92406 °/min
Orbital period
91.74 mins
BSTAR
0.0000079734
Loading maneuver chart data...
Computing Atmospheric mass density...
Loading historical data...
Loading historical data...
Loading historical data...
Loading historical data...
Loading historical data...
Loading historical data...
Loading historical data...

Documentation

Showing up to 5 results
|